Home > Weather > Eindhoven > Past weeks

Flag for Netherlands Weather for the Past 2 Weeks in Eindhoven, Netherlands

Now
46 °F

Passing clouds.


Feels Like: 39 °F
Forecast: 40 / 44 °F
Wind: 17 mph from Southwest

Location: Eindhoven Airport

Current Time: Feb 8, 2016 at 7:15:59 AM

Latest Report: Feb 8, 2016 at 6:55 AM


Visibility: N/A

Pressure: 29.21 "Hg

Humidity: 87%

Dew point: 43 °F

Location of EindhovenLocation

Historic Weather in Eindhoven — Graph

°F

Eindhoven Temperature Yesterday

Maximum temperature yesterday: 54 °F (at 2:25 AM)
Minimum temperature yesterday: 45 °F (at 8:25 AM)
Average temperature yesterday: 48 °F

High & Low Weather Summary for the Past Weeks

 TemperatureHumidityPressure
High61 °F (Jan 25, 2:25 PM)100% (Jan 24, 9:25 AM)30.42 "Hg (Jan 24, 9:25 AM)
Low36 °F (Jan 30, 8:55 PM)42% (Jan 25, 3:55 PM)29.24 "Hg (Feb 8, 5:03 AM)
Average47 °F84%30.00 "Hg
* Reported Jan 24 6:25 AM — Feb 8 6:03 AM, Eindhoven, Weather by CustomWeather, © 2016

Note: Actual official high and low records may vary slightly from our data, if they occured in-between our weather recording intervals... More about our weather records

Advertising

Eindhoven Weather History for the Previous 24 Hours

 ConditionsComfort  
Time TempWeatherWind HumidityBarometerVisibility
6:03 AM
Mon, Feb 8
46 °FSprinkles. Partly cloudy.23 mph93%29.24 "HgN/A
5:25 AM46 °FLight rain. Partly cloudy.24 mph93%29.24 "Hg3 mi
5:03 AM46 °FDrizzle. Mostly cloudy.26 mph87%29.24 "Hg3 mi
4:25 AM46 °FOvercast.24 mph87%29.27 "HgN/A
3:55 AM46 °FLight rain. Mostly cloudy.23 mph87%29.30 "HgN/A
3:25 AM46 °FMostly cloudy.24 mph82%29.30 "HgN/A
2:55 AM46 °FMostly cloudy.22 mph82%29.33 "HgN/A
2:25 AM46 °FDrizzle. Mostly cloudy.23 mph76%29.36 "HgN/A
1:55 AM46 °FDrizzle. Overcast.23 mph71%29.39 "HgN/A
1:25 AM46 °FPassing clouds.25 mph71%29.39 "HgN/A
12:55 AM46 °FOvercast.22 mph66%29.42 "HgN/A
12:25 AM46 °FMostly cloudy.18 mph66%29.45 "HgN/A
11:55 PM
Sun, Feb 7
46 °FPartly cloudy.20 mph66%29.45 "HgN/A
11:25 PM45 °FPartly cloudy.20 mph71%29.47 "HgN/A
10:55 PM45 °FPassing clouds.16 mph71%29.50 "HgN/A
10:25 PM45 °FPassing clouds.16 mph71%29.53 "HgN/A
9:55 PM45 °FPassing clouds.15 mph71%29.53 "HgN/A
9:25 PM45 °FQuite cool.16 mph66%29.53 "HgN/A
8:55 PM45 °FQuite cool.16 mph66%29.56 "HgN/A
8:25 PM45 °FQuite cool.16 mph66%29.56 "HgN/A
7:55 PM46 °FCool.17 mph62%29.56 "HgN/A
7:25 PM46 °FOvercast.16 mph62%29.56 "HgN/A
6:55 PM46 °FPassing clouds.15 mph62%29.56 "HgN/A
6:25 PM46 °FCool.16 mph62%29.56 "HgN/A
5:55 PM46 °FPassing clouds.17 mph66%29.56 "HgN/A
5:25 PM48 °FOvercast.14 mph62%29.56 "HgN/A
4:55 PM46 °FPassing clouds.15 mph62%29.56 "HgN/A
4:25 PM48 °FBroken clouds.18 mph62%29.56 "HgN/A
3:55 PM48 °FPassing clouds.23 mph62%29.56 "HgN/A
3:25 PM48 °FScattered clouds.22 mph66%29.53 "HgN/A
2:55 PM48 °FCloudy.21 mph66%29.53 "HgN/A
2:25 PM48 °FMostly cloudy.20 mph66%29.53 "HgN/A
1:55 PM48 °FMore clouds than sun.21 mph66%29.53 "HgN/A
1:25 PM48 °FPartly sunny.18 mph71%29.53 "HgN/A
1:04 PM50 °FPassing clouds.18 mph67%29.53 "HgN/A
12:25 PM48 °FBroken clouds.20 mph71%29.50 "HgN/A
12:03 PM48 °FScattered clouds.20 mph76%29.50 "HgN/A
11:55 AM48 °FBroken clouds.18 mph76%29.50 "HgN/A
11:25 AM48 °FBroken clouds.16 mph76%29.50 "HgN/A
10:55 AM46 °FPassing clouds.16 mph82%29.47 "HgN/A
10:25 AM46 °FCloudy.13 mph87%29.47 "HgN/A
9:55 AM46 °FPartly sunny.12 mph87%29.47 "HgN/A
9:25 AM45 °FBroken clouds.10 mph93%29.47 "HgN/A
8:55 AM45 °FBroken clouds.9 mph93%29.45 "HgN/A
8:25 AM45 °FDrizzle. Partly sunny.12 mph93%29.45 "HgN/A
7:55 AM46 °FPartly cloudy.13 mph87%29.42 "HgN/A
7:25 AM46 °FLight rain. Passing clouds.16 mph93%29.42 "HgN/A
Weather by CustomWeather, © 2016

See weather overviewHow to use our weather pages